User: anonymous   Login
Location: Caltech
(34.1382°N, 118.1253°W)
Time: 09:00:33
(UTC-07:00)
Language:

PANSAT - Orbit

View from above orbital plane
View from above orbital plane
View from above satellite
View from above satellite

Ground track
Ground track

The orbit data is extracted from the following two-line orbital elements,

1 25520U 98064B   14296.79777690  .00006236  00000-0  23975-3 0  6033
2 25520 028.4584 079.5952 0004936 084.3620 028.8940 15.24261109886272
Epoch (UTC): 23 October 2014 19:08:47
Eccentricity: 0.0004936
inclination: 28.4584°
perigee height: 489 km
apogee height: 496 km
right ascension of ascending node: 79.5952°
argument of perigee: 84.3620°
revolutions per day: 15.24261109
mean anomaly at epoch: 28.8940°
orbit number at epoch: 88627

The dashed part of the orbit path shows where the satellite is in the earth's shadow,  

DLR